GFSNGP_850_temp_195.txt.gz
Temp
5 6 5 5 5 6 5 5 4 5 6 8 9 9 8 8 11 9 8 9 9 8 8 7 5 5 4 6 4 4 3 2 2 3 3 2 2 1 1 0 -1 -1 -2 -2
3 4 5 4 5 5 6 6 6 6 6 8 8 9 10 9 10 9 8 9 9 10 9 7 6 7 6 6 6 4 3 1 1 1 1 2 1 0 -0 -1 -1 -2 -2 -3
1 3 3 1 4 4 4 5 5 4 6 7 6 7 9 10 10 9 8 10 10 9 6 6 5 7 7 6 6 4 3 1 1 1 1 0 -0 -1 -1 -2 -2 -2 -3 -3
0 2 -1 3 6 6 6 6 7 7 7 7 7 7 8 8 9 9 9 9 8 8 7 7 7 6 6 5 5 4 3 2 1 0 -0 -1 -1 -2 -2 -2 -3 -3 -3 -3
0 1 3 4 5 5 5 4 7 5 6 7 5 7 7 6 8 8 7 6 6 8 8 7 7 6 6 5 5 3 3 2 1 0 -1 -1 -1 -1 -2 -3 -4 -4 -4 -4
2 1 1 4 4 4 6 4 6 5 5 4 5 3 4 7 5 6 6 7 5 7 7 7 6 5 5 5 5 3 2 3 2 0 -0 -0 -1 -2 -3 -3 -4 -5 -5 -6
1 1 2 4 4 5 2 3 4 6 5 5 3 3 4 5 6 6 6 6 7 6 6 6 7 6 5 4 4 4 2 2 1 0 -0 -1 -2 -3 -4 -4 -5 -6 -7 -7
0 -1 -1 5 4 3 4 4 4 4 5 4 4 4 4 3 6 7 7 7 6 6 6 5 5 5 5 5 3 2 1 1 0 -1 -1 -2 -3 -4 -4 -5 -5 -7 -7 -7
1 -0 2 4 5 5 4 3 3 3 4 4 4 3 3 1 3 7 7 6 6 5 4 4 4 3 3 2 1 0 0 -0 -1 -2 -2 -3 -4 -4 -5 -6 -7 -8 -7 -8
0 3 5 6 4 5 4 4 4 5 5 5 4 4 3 3 4 7 7 6 5 5 4 4 3 2 1 1 -1 -1 -1 -2 -3 -3 -4 -4 -4 -5 -6 -6 -7 -8 -8 -7
2 3 4 5 5 5 5 5 5 5 5 5 5 4 4 2 4 7 7 6 5 5 4 4 3 1 1 1 -0 -2 -2 -3 -4 -4 -4 -5 -5 -5 -6 -6 -6 -7 -8 -7
0 3 3 4 5 6 6 6 6 6 5 5 5 4 4 4 5 7 7 6 5 6 4 4 3 2 1 0 -0 -2 -3 -4 -5 -5 -5 -5 -6 -6 -7 -7 -8 -8 -7 -7
3 4 4 3 4 4 3 4 4 4 4 5 5 5 5 4 4 5 5 5 5 5 4 3 2 2 1 0 -1 -2 -4 -4 -5 -5 -5 -5 -6 -6 -7 -8 -8 -8 -8 -9
4 4 3 2 1 2 2 2 3 3 3 3 4 4 5 5 5 5 5 5 4 4 3 3 2 1 -0 -0 -1 -3 -4 -5 -5 -5 -5 -6 -6 -6 -7 -7 -8 -9 -9 -9
2 2 1 1 1 0 1 1 1 1 1 2 2 3 3 4 5 5 5 5 4 4 3 2 2 0 -2 -1 -1 -2 -4 -5 -5 -6 -6 -6 -7 -7 -7 -8 -8 -9 -9 -10
-0 -0 0 0 -1 -1 -1 -1 -0 -0 -0 -1 0 2 3 4 4 4 4 4 4 3 3 2 2 -0 -2 -2 -2 -3 -5 -5 -6 -6 -6 -7 -7 -7 -8 -8 -9 -9 -9 -9
-1 -2 -0 -1 -1 -1 -1 -1 -1 -1 -1 -2 -1 0 1 2 3 4 3 3 4 3 3 2 2 -0 -2 -2 -3 -4 -5 -6 -6 -6 -7 -7 -7 -8 -8 -8 -9 -9 -9 -9
0 -1 -1 -2 -3 -3 -3 -3 -2 -2 -2 -2 -2 -1 0 1 2 2 2 2 2 2 2 1 1 -1 -2 -3 -4 -4 -5 -6 -6 -6 -6 -7 -7 -8 -8 -8 -9 -9 -9 -9
-1 -2 -2 -3 -4 -4 -4 -3 -3 -3 -3 -3 -2 -2 -1 -0 0 1 1 1 1 1 1 1 -0 -2 -3 -4 -4 -5 -5 -6 -6 -6 -7 -7 -8 -8 -8 -9 -9 -9 -9 -9
-2 -3 -3 -4 -4 -4 -4 -4 -4 -3 -3 -3 -3 -3 -2 -2 -1 -1 -1 -1 -1 -0 -0 -1 -2 -3 -4 -4 -5 -5 -5 -6 -6 -6 -7 -7 -8 -8 -9 -9 -9 -9 -9 -9
-5 -5 -5 -5 -5 -5 -5 -4 -4 -4 -3 -3 -3 -3 -2 -2 -1 -2 -3 -3 -3 -2 -2 -3 -4 -4 -5 -5 -5 -6 -6 -6 -6 -7 -7 -7 -8 -8 -8 -8 -8 -9 -9 -9
-6 -5 -6 -6 -6 -5 -4 -4 -4 -4 -4 -4 -3 -3 -3 -2 -2 -2 -3 -4 -4 -4 -4 -4 -4 -4 -5 -6 -6 -6 -6 -6 -6 -7 -7 -7 -7 -8 -8 -8 -8 -8 -9 -9
-6 -6 -6 -6 -6 -5 -4 -4 -4 -4 -4 -3 -4 -3 -3 -2 -3 -3 -3 -4 -4 -4 -4 -4 -5 -5 -5 -6 -6 -6 -6 -6 -7 -7 -7 -7 -8 -8 -8 -9 -9 -9 -9 -9
-6 -6 -6 -6 -6 -5 -5 -5 -5 -4 -4 -4 -3 -3 -3 -3 -4 -4 -4 -4 -4 -4 -5 -5 -6 -6 -6 -6 -6 -6 -6 -7 -7 -8 -8 -8 -8 -8 -9 -9 -9 -10 -10 -10
-6 -6 -6 -6 -6 -6 -6 -5 -5 -5 -5 -5 -4 -4 -4 -4 -4 -4 -5 -5 -5 -5 -6 -6 -6 -6 -6 -6 -6 -7 -7 -7 -7 -8 -8 -9 -9 -9 -10 -10 -10 -10 -10 -11
-5 -5 -6 -5 -6 -6 -6 -5 -5 -5 -6 -6 -6 -5 -5 -5 -5 -5 -5 -5 -5 -6 -6 -6 -6 -6 -7 -7 -7 -7 -8 -8 -8 -9 -9 -9 -10 -10 -10 -10 -11 -11 -11 -11
-5 -6 -6 -6 -6 -6 -6 -6 -5 -6 -6 -6 -6 -6 -6 -6 -6 -6 -5 -6 -6 -6 -6 -6 -7 -7 -7 -7 -8 -8 -9 -9 -9 -10 -10 -10 -10 -11 -11 -11 -11 -11 -12 -12

GFSNGP_850_temp_198.txt.gz
Temp
5 5 5 4 4 5 4 4 3 4 4 5 6 6 7 7 7 8 8 9 8 8 10 8 8 6 7 6 6 5 3 3 3 3 4 4 3 2 1 1 1 0 0 -0
3 4 4 3 4 4 4 4 4 4 4 6 7 7 7 7 7 7 8 8 9 9 9 8 8 6 6 4 4 5 3 2 2 2 3 2 2 1 1 1 0 -0 -1 -1
1 3 2 -1 3 3 3 4 4 3 4 6 5 6 6 7 7 7 7 9 9 9 9 9 8 5 4 5 3 3 3 2 1 1 2 1 1 1 1 -0 -1 -1 -2 -2
-2 1 -6 2 4 4 4 5 5 5 5 6 6 6 6 6 7 7 8 8 9 8 9 8 6 5 5 5 3 3 3 3 2 1 1 1 1 0 0 -0 -1 -2 -2 -3
-3 -1 2 3 4 4 3 2 4 4 4 5 5 5 5 6 6 7 8 8 8 7 7 6 6 6 6 5 3 3 3 3 2 2 1 1 0 -0 -1 -2 -2 -2 -3 -3
-2 -0 -1 2 4 5 3 2 4 4 3 3 4 2 2 4 5 4 6 6 6 7 7 6 6 6 5 5 4 3 3 3 2 1 2 1 0 -1 -1 -3 -3 -3 -4 -5
0 -0 2 3 4 4 1 2 4 3 3 3 1 2 4 3 3 3 4 5 5 5 5 5 5 5 4 4 4 4 3 2 2 2 1 -0 -0 -1 -2 -3 -4 -5 -5 -6
-3 -4 -1 3 4 3 3 5 4 3 4 3 4 4 4 3 4 3 2 4 5 5 6 5 5 5 5 4 4 4 2 1 1 0 0 -1 -1 -2 -3 -4 -4 -5 -6 -6
0 -0 1 2 1 3 4 4 4 3 4 5 4 4 3 2 1 1 1 3 6 6 5 5 6 5 4 3 2 1 0 -0 0 -0 -1 -2 -2 -3 -4 -4 -5 -6 -6 -6
-0 2 2 2 4 5 4 4 5 5 5 5 5 4 2 2 1 1 2 3 5 5 5 5 4 3 3 3 3 1 -1 -1 -1 -1 -2 -3 -4 -4 -4 -4 -5 -6 -6 -6
1 2 2 3 4 4 4 4 4 4 5 5 5 4 4 3 1 0 2 3 6 6 6 5 4 3 3 2 2 -1 -2 -2 -2 -2 -3 -4 -5 -4 -4 -5 -5 -5 -6 -6
-1 2 2 2 3 4 3 3 3 3 4 4 4 4 4 4 3 3 3 4 5 6 5 5 4 3 3 1 1 -1 -2 -3 -3 -4 -5 -5 -5 -5 -5 -5 -5 -6 -6 -6
1 2 2 2 3 2 3 3 2 3 3 3 3 4 4 3 4 4 5 3 4 5 4 4 4 3 2 1 1 -1 -1 -3 -4 -4 -5 -5 -5 -5 -5 -6 -7 -7 -7 -7
1 1 1 1 2 1 1 1 1 1 1 1 2 2 2 2 3 3 4 4 4 4 3 3 3 2 2 1 0 -1 -3 -4 -4 -4 -5 -5 -5 -5 -6 -6 -6 -7 -8 -8
1 1 0 -0 0 0 0 -0 -0 -0 -0 -0 -0 0 1 2 2 3 4 4 4 4 3 3 3 2 2 1 -1 -1 -3 -4 -4 -4 -5 -6 -5 -6 -6 -6 -6 -7 -8 -8
1 1 0 -1 -1 -1 -1 -1 -1 -1 -1 -2 -1 -1 -1 0 2 3 4 3 4 3 3 3 3 2 2 0 -1 -2 -4 -5 -4 -4 -5 -6 -6 -6 -6 -7 -7 -8 -8 -8
1 0 0 -1 -2 -2 -3 -2 -2 -2 -1 -2 -2 -2 -1 -0 1 2 3 3 3 3 3 3 3 2 2 -2 -2 -2 -4 -5 -5 -5 -5 -6 -6 -6 -6 -7 -8 -8 -8 -9
0 -0 -1 -2 -3 -4 -4 -4 -4 -3 -3 -2 -2 -2 -2 -1 0 1 1 1 2 2 2 2 2 1 -0 -2 -3 -3 -4 -5 -5 -5 -5 -6 -6 -6 -7 -7 -8 -8 -9 -10
-1 -2 -3 -4 -4 -4 -4 -4 -4 -4 -3 -3 -3 -3 -3 -2 -1 0 1 1 1 2 1 1 0 -0 -2 -3 -3 -3 -4 -5 -5 -5 -6 -6 -7 -7 -7 -8 -8 -8 -9 -9
-4 -5 -5 -5 -5 -5 -5 -5 -5 -4 -4 -4 -4 -3 -3 -3 -2 -1 -0 -0 -1 -2 -2 -1 -2 -3 -3 -3 -3 -4 -4 -5 -5 -5 -6 -6 -7 -7 -8 -8 -9 -9 -9 -9
-5 -5 -5 -5 -6 -6 -6 -5 -5 -4 -4 -4 -4 -3 -3 -3 -2 -2 -2 -2 -3 -3 -3 -2 -4 -3 -4 -4 -4 -4 -5 -5 -5 -6 -6 -6 -7 -8 -8 -8 -9 -9 -9 -9
-6 -6 -6 -6 -6 -6 -5 -5 -5 -5 -4 -4 -4 -3 -3 -3 -3 -2 -3 -4 -4 -4 -4 -4 -4 -4 -4 -4 -5 -5 -5 -5 -6 -6 -6 -7 -7 -8 -8 -8 -9 -9 -9 -9
-6 -6 -6 -6 -6 -6 -5 -5 -5 -5 -4 -4 -4 -3 -3 -3 -3 -3 -3 -4 -4 -5 -5 -5 -5 -5 -5 -5 -5 -5 -6 -6 -6 -6 -7 -7 -7 -7 -8 -8 -9 -8 -9 -9
-5 -5 -6 -6 -6 -6 -5 -5 -5 -5 -5 -4 -4 -3 -3 -3 -3 -4 -4 -4 -5 -5 -5 -5 -5 -5 -5 -5 -5 -6 -6 -6 -6 -7 -7 -8 -7 -8 -8 -9 -9 -9 -9 -9
-5 -5 -6 -6 -5 -6 -6 -6 -5 -5 -5 -5 -5 -4 -4 -4 -4 -4 -4 -4 -5 -5 -5 -5 -5 -5 -5 -6 -6 -6 -6 -7 -7 -7 -8 -8 -8 -9 -9 -9 -9 -10 -10 -10
-5 -6 -6 -6 -6 -6 -6 -6 -5 -5 -6 -6 -6 -5 -5 -5 -5 -5 -5 -5 -5 -5 -5 -5 -6 -6 -6 -6 -6 -6 -7 -7 -7 -8 -8 -9 -9 -9 -9 -10 -10 -10 -10 -10
-6 -6 -6 -6 -7 -7 -7 -6 -6 -6 -6 -6 -6 -6 -6 -6 -6 -5 -5 -5 -5 -6 -6 -6 -6 -6 -6 -6 -7 -7 -7 -8 -8 -9 -9 -9 -10 -10 -10 -10 -11 -11 -11 -11

GFSNGP_850_temp_204.txt.gz
Temp
5 5 5 5 5 4 4 4 4 5 4 5 5 4 5 5 5 5 5 6 6 6 6 6 6 7 7 7 6 5 6 5 6 6 3 3 3 3 3 2 1 1 1 1
3 4 4 4 4 4 4 4 4 4 3 5 5 5 4 4 5 4 5 5 5 5 5 5 7 7 7 6 5 4 4 4 5 6 3 2 2 2 1 0 -0 -0 -0 -0
2 3 3 1 3 3 4 4 4 3 4 4 3 3 4 4 4 4 4 4 4 4 5 5 7 7 8 6 4 4 4 3 4 4 2 2 2 1 -0 -0 -0 -0 -0 -0
0 3 -0 3 3 4 4 4 3 3 3 3 3 4 4 4 4 4 5 4 4 4 4 5 6 7 6 5 4 5 4 3 4 2 1 1 1 1 1 -0 -0 -0 -0 -1
-0 0 2 2 2 2 2 2 3 2 3 3 4 3 3 5 4 4 4 4 4 3 3 4 4 4 4 4 5 5 5 4 4 3 0 1 0 0 -0 -0 -1 -1 -1 -2
-1 -2 -1 2 3 4 3 2 3 2 2 2 2 -0 1 5 4 5 4 4 3 3 3 4 3 4 3 3 4 5 5 3 3 2 0 -0 -0 -0 -0 -1 -1 -1 -1 -2
-1 -1 0 2 2 3 1 1 3 3 3 2 -0 1 5 4 4 4 4 4 4 2 3 3 3 3 3 4 4 4 4 3 3 2 1 0 -0 -1 -1 -1 -2 -2 -2 -3
-3 -5 -3 1 1 1 1 2 3 3 3 2 3 4 4 4 4 4 4 4 3 2 2 3 4 4 3 4 4 3 3 3 2 2 1 0 -0 -1 -1 -2 -2 -3 -3 -4
-3 -2 -0 2 3 4 4 4 4 3 4 3 3 3 4 4 4 4 3 3 2 2 1 2 3 4 4 4 3 2 1 1 0 0 -0 -0 -1 -1 -2 -3 -3 -3 -4 -4
-0 -0 -0 2 2 2 3 3 3 3 3 3 3 3 4 4 4 3 4 3 2 2 1 0 2 2 3 4 3 1 -0 -0 -1 -1 -1 -1 -2 -2 -2 -3 -3 -4 -4 -5
-1 -0 1 2 3 3 2 2 2 2 2 2 2 3 3 3 3 3 3 3 2 2 2 2 2 1 -0 1 3 1 -1 -1 -1 -2 -2 -2 -2 -2 -4 -4 -4 -3 -4 -4
-2 1 1 1 2 2 1 1 1 1 2 2 2 2 2 2 2 2 3 3 2 2 1 1 1 2 1 0 0 2 1 -2 -2 -2 -2 -2 -3 -4 -5 -5 -5 -4 -5 -5
0 2 1 1 1 1 1 1 1 1 1 0 1 1 1 1 1 1 2 2 2 2 1 2 1 1 2 1 0 -0 1 -1 -3 -3 -3 -4 -4 -4 -5 -6 -6 -5 -5 -6
1 1 -0 0 0 1 0 0 0 -0 -0 -0 -1 -0 -0 -1 -1 -1 -0 1 1 2 1 1 2 1 2 1 1 1 1 0 -0 -2 -4 -5 -5 -5 -6 -5 -5 -5 -6 -6
1 1 1 1 0 0 -0 -0 -1 -1 -1 -1 -2 -2 -2 -1 -1 -2 -1 -1 -0 1 1 1 1 1 1 1 1 1 1 0 -1 -2 -3 -4 -5 -6 -6 -6 -5 -6 -6 -7
1 1 1 0 -0 -1 -1 -2 -2 -2 -2 -2 -2 -2 -3 -2 -2 -2 -2 -2 -1 0 1 1 2 2 -0 1 1 1 0 -0 -1 -2 -2 -4 -5 -6 -6 -6 -6 -6 -7 -7
0 -0 -1 -2 -2 -2 -2 -2 -3 -4 -4 -4 -4 -4 -4 -3 -3 -3 -2 -2 -1 -1 0 1 0 0 -0 -0 0 0 -2 -1 -1 -2 -3 -4 -4 -6 -6 -6 -6 -6 -7 -7
-1 -2 -3 -4 -4 -5 -5 -5 -5 -5 -5 -5 -4 -4 -4 -3 -3 -3 -3 -3 -1 -1 -0 -0 -0 -1 -0 -0 -1 -1 -2 -1 -2 -3 -3 -4 -5 -6 -6 -6 -7 -7 -7 -8
-3 -4 -4 -5 -5 -5 -5 -5 -5 -5 -5 -5 -5 -5 -4 -4 -3 -3 -4 -4 -3 -1 -2 -2 -2 -2 -1 -1 -1 -1 -3 -3 -3 -3 -4 -5 -6 -6 -6 -7 -7 -7 -8 -8
-4 -5 -6 -5 -5 -5 -5 -5 -5 -5 -5 -5 -5 -5 -4 -4 -3 -3 -3 -3 -3 -2 -2 -3 -2 -2 -2 -2 -2 -2 -4 -4 -4 -4 -5 -6 -6 -6 -7 -7 -7 -8 -8 -8
-5 -5 -6 -6 -5 -5 -6 -6 -6 -5 -5 -5 -5 -5 -5 -4 -3 -4 -3 -3 -3 -3 -3 -3 -4 -3 -3 -2 -3 -4 -4 -4 -4 -4 -5 -6 -6 -6 -7 -7 -8 -8 -8 -9
-5 -5 -5 -5 -5 -6 -6 -6 -6 -5 -5 -5 -5 -5 -4 -4 -4 -4 -3 -3 -3 -3 -3 -4 -4 -4 -4 -3 -4 -4 -4 -4 -5 -5 -6 -6 -6 -7 -7 -8 -8 -8 -9 -9
-5 -5 -5 -5 -6 -6 -6 -6 -6 -6 -6 -6 -5 -5 -5 -4 -4 -4 -3 -3 -3 -4 -4 -4 -4 -4 -4 -4 -4 -4 -4 -5 -5 -5 -6 -6 -6 -7 -7 -8 -8 -8 -9 -9
-5 -5 -5 -5 -6 -6 -6 -6 -6 -6 -6 -6 -6 -6 -5 -4 -4 -4 -4 -4 -4 -4 -5 -5 -5 -4 -4 -5 -5 -5 -5 -5 -5 -6 -6 -6 -7 -7 -8 -8 -8 -9 -9 -9
-5 -5 -6 -6 -6 -7 -7 -7 -6 -6 -6 -6 -6 -6 -6 -5 -5 -4 -4 -4 -5 -5 -5 -5 -5 -5 -5 -5 -5 -5 -5 -5 -6 -6 -6 -7 -7 -8 -8 -8 -8 -9 -9 -9
-5 -6 -6 -7 -7 -7 -7 -7 -7 -7 -6 -6 -6 -6 -6 -6 -5 -5 -5 -5 -5 -5 -5 -5 -5 -6 -6 -6 -6 -6 -6 -6 -6 -7 -7 -8 -8 -8 -8 -8 -8 -9 -9 -10
-6 -6 -6 -6 -6 -7 -7 -7 -7 -7 -7 -7 -7 -7 -6 -6 -6 -6 -6 -6 -6 -6 -6 -6 -6 -6 -6 -6 -6 -6 -6 -7 -7 -7 -8 -8 -8 -9 -9 -9 -9 -10 -10 -10

GFSNGP_850_temp_207.txt.gz
Temp
7 6 6 7 8 7 8 10 10 11 9 9 8 7 6 5 5 5 5 5 5 5 5 5 6 7 6 6 7 6 6 5 5 5 4 4 3 3 4 3 2 2 0 0
7 5 4 5 6 6 6 6 8 8 8 8 7 5 5 5 4 4 4 5 4 4 4 5 5 5 6 6 6 5 5 4 4 4 3 3 2 2 3 2 0 -0 -1 -1
5 3 4 5 5 5 5 6 7 6 8 7 6 5 5 5 4 4 4 4 4 3 3 4 4 4 5 6 5 4 3 3 3 3 2 2 2 1 1 0 -0 -1 -2 -1
1 2 4 6 4 6 6 7 6 7 6 6 5 5 4 4 4 4 4 3 3 3 3 3 4 4 5 4 3 3 3 3 3 2 1 1 1 1 1 -0 -1 -1 -1 -1
1 2 4 4 4 4 5 5 5 5 5 5 5 3 5 5 5 4 4 4 4 4 3 4 4 3 4 2 2 2 2 2 3 2 1 0 0 1 0 -0 -1 -1 -1 -1
-0 1 3 4 3 4 5 4 5 5 5 5 3 4 6 5 5 5 4 4 4 4 4 3 3 2 3 2 2 2 3 3 2 2 1 1 1 1 0 -1 -1 -1 -2 -2
1 2 3 4 3 4 3 5 3 3 4 3 3 4 4 4 4 4 4 4 4 4 4 3 2 1 3 2 3 2 2 2 1 2 2 1 1 1 -0 -1 -1 -1 -1 -2
1 1 2 3 2 4 4 2 3 3 3 3 2 3 3 3 4 4 4 4 4 4 3 2 2 1 1 3 3 2 2 1 1 2 2 2 1 1 -1 -1 -1 -2 -3 -3
2 2 2 2 5 4 4 3 3 2 2 2 1 2 2 3 3 4 4 4 4 3 3 2 0 1 1 2 1 1 1 2 2 1 1 1 1 -0 -0 -1 -2 -3 -3 -4
1 2 2 2 3 3 3 3 3 2 2 2 1 2 2 3 3 3 3 3 3 3 3 2 1 0 0 1 0 -0 -0 -0 -0 -1 -1 -1 -1 -1 -2 -2 -3 -3 -4 -4
1 2 1 1 2 3 2 2 2 2 1 1 1 1 1 2 2 2 2 2 2 2 2 2 1 1 1 2 0 -1 -1 -1 -2 -2 -2 -2 -3 -2 -3 -3 -3 -3 -4 -4
1 3 3 3 3 2 2 1 1 1 1 1 0 0 0 0 0 1 1 1 1 1 2 1 1 0 2 1 2 -1 -1 -2 -2 -2 -3 -3 -3 -3 -4 -5 -4 -4 -5 -5
3 2 2 2 1 1 1 1 1 0 0 0 1 -0 -0 -0 -0 -0 -0 -0 -0 0 1 1 -0 0 1 1 1 1 -0 -2 -3 -3 -3 -3 -3 -4 -4 -4 -4 -5 -5 -5
2 1 0 1 1 1 1 0 0 -0 -0 -0 -1 -1 -1 -2 -2 -2 -2 -1 -1 -1 -1 -0 0 0 1 1 1 1 1 -3 -3 -3 -4 -4 -5 -4 -4 -4 -5 -5 -6 -6
1 1 1 1 0 0 -0 -1 -1 -2 -2 -2 -1 -2 -2 -2 -3 -3 -2 -2 -2 -2 -2 -1 -0 1 0 0 1 1 0 -1 -3 -4 -3 -4 -4 -5 -5 -5 -5 -6 -6 -6
1 1 0 0 -0 -0 -1 -1 -2 -2 -2 -3 -3 -4 -4 -4 -4 -4 -3 -2 -3 -2 -2 -1 -1 1 1 0 1 0 -0 -1 -1 -2 -3 -3 -5 -5 -5 -6 -6 -6 -6 -7
-0 -1 -1 -1 -2 -3 -4 -4 -4 -4 -4 -5 -4 -4 -4 -4 -4 -4 -3 -3 -3 -3 -3 -2 -1 -0 0 -1 -1 -1 -0 -1 -1 -2 -3 -4 -4 -5 -5 -6 -6 -6 -6 -7
-1 -1 -2 -3 -3 -4 -5 -5 -5 -5 -5 -5 -5 -5 -5 -5 -4 -4 -3 -3 -4 -4 -4 -2 -1 -1 -1 -1 -1 -1 -2 -2 -1 -2 -3 -4 -5 -5 -6 -6 -6 -6 -7 -7
-2 -3 -4 -4 -5 -5 -6 -5 -5 -5 -5 -5 -5 -5 -5 -5 -5 -4 -4 -4 -3 -4 -3 -3 -3 -3 -3 -2 -2 -1 -1 -1 -2 -2 -3 -5 -5 -6 -6 -6 -6 -6 -7 -7
-4 -5 -5 -5 -6 -5 -5 -5 -6 -5 -5 -5 -6 -5 -5 -5 -5 -4 -4 -4 -3 -3 -3 -3 -3 -3 -3 -3 -2 -2 -2 -1 -2 -3 -4 -5 -5 -6 -6 -6 -6 -7 -7 -7
-5 -5 -5 -5 -5 -5 -5 -6 -6 -6 -5 -6 -6 -6 -5 -5 -4 -4 -4 -4 -3 -3 -3 -3 -3 -3 -3 -3 -4 -3 -3 -4 -4 -4 -4 -5 -6 -6 -6 -7 -7 -7 -7 -8
-5 -5 -5 -5 -5 -5 -6 -6 -6 -6 -6 -6 -6 -6 -5 -5 -4 -4 -4 -4 -3 -3 -3 -3 -3 -4 -4 -3 -3 -4 -4 -4 -4 -4 -5 -5 -6 -6 -6 -7 -7 -7 -8 -8
-5 -5 -5 -5 -5 -6 -6 -6 -6 -6 -6 -6 -6 -6 -6 -5 -5 -4 -4 -4 -4 -4 -4 -4 -4 -4 -4 -4 -4 -4 -4 -4 -4 -5 -5 -6 -6 -6 -7 -7 -7 -8 -8 -8
-5 -5 -5 -6 -6 -6 -6 -6 -6 -7 -6 -6 -6 -6 -6 -5 -5 -5 -4 -4 -4 -4 -4 -4 -4 -4 -4 -4 -4 -4 -4 -4 -5 -5 -6 -6 -6 -7 -7 -7 -8 -8 -9 -9
-5 -5 -6 -6 -6 -6 -7 -7 -6 -7 -6 -6 -6 -6 -6 -6 -6 -5 -5 -5 -5 -5 -5 -5 -5 -5 -5 -5 -5 -5 -5 -5 -5 -6 -6 -6 -7 -7 -7 -8 -8 -8 -9 -9
-5 -6 -6 -6 -7 -7 -7 -7 -7 -7 -7 -7 -7 -7 -7 -6 -6 -6 -5 -5 -5 -5 -5 -6 -6 -6 -6 -5 -5 -5 -6 -6 -6 -6 -6 -7 -7 -8 -8 -8 -8 -9 -9 -9
-6 -6 -6 -6 -6 -7 -7 -7 -7 -7 -7 -7 -7 -7 -7 -6 -6 -6 -6 -6 -6 -6 -6 -6 -6 -6 -6 -6 -6 -6 -6 -6 -6 -7 -7 -8 -8 -8 -8 -8 -8 -9 -9 -10